THORAD AGENA D DEB, 4644

Orbit data source: Space-Track

THORAD AGENA D DEB, 4644 is space debris in SSO originally from a launch on Wed, 08 Apr 1970 UTC launched from the Air Force Western Test Range (AFWTR). Debris objects in space refer to the collection of defunct objects orbiting the Earth. Examples of debris include non-operational satellites, rocket bodies, and fragments generated from explosions, collisions, or faulty payload assembly.

Loading next visibility...
Identifier
4644, 1970-025AC
Orbit
SSO
Last TLE update
17 hours ago
Origin
Manufacturer
Unknown
Mission
Spacecraft
Bus & Motor
Unknown
Mass
Unknown
Launch date (UTC)
1970-04-08 (55 years ago)
Launch vehicle
Unknown
Launch site
Air Force Western Test Range (AFWTR)
Object type
Payload
Rocket body
Debris
Shape & HBR
Unknown
Radar Cross Section
Medium (>0.1 m² and <1 m²)

Expand to show TLE details & history

TLE from 17 hours ago
0 THORAD AGENA D DEB
1 04644U 70025AC  25189.66335264  .00000310  00000-0  47202-3 0  9994
2 04644  99.5857  86.0294 0011525  81.5685 308.0082 13.60253697730473
Epoch: 2025-07-08T15:55Z
TLE epoch observation values (Epoch: 2025-07-08T15:55:13.668Z)
Latitude
29.06842°
Longitude
-84.99138°
Altitude
1,033.025 km
Speed
7.34 km/s
True Right ascension
05h 22m 40s
True Declination
28° 55' 41"
Sunlit
Object was in daylight at epoch
Visualization orbit readout
Latitude
-63.64827°
Longitude
-59.10482°
Altitude
1,066.028 km
Speed
7.315 km/s
Apparent Right ascension
08h 24m 11s
Apparent Declination
-53° 37' 36"
Sunlit
Object is in daylight
Visualization observer readout
Local Sidereal Time
21:16:19
Azimuth
151.545° SSE
Elevation
-73.695°
Doppler factor
1
Orbital elements
Apogee altitude
1,040.592 km
Perigee altitude
1,023.512 km
Semi-major axis
7,410.189 km
Eccentricity
0.00115
Inclination
99.5857°
RAAN
86.0294°
Arg. of periapsis
81.5685°
True anomaly
Unknown
Mean anomaly
308.0082°
Eccentric anomaly
Unknown
Mean motion
3.40251 °/min
Orbital period
105.8 mins
BSTAR
0.00047202
Loading maneuver chart data...
Loading SW <> Apogee altitude chart data...

THORAD AGENA D DEB Visibility forecast

Observer location: undefined°, undefined°

Span
Click to sort rows by Start time (UTC) header in descending order
Start Az.
Max El. time (UTC)
Max El. Az.
Max El.
End time (UTC)
End Az.
12 mins2025-07-09 16:35:33.351Z149.016° SSE2025-07-09 16:41:33.351Z78.548° E41.183°2025-07-09 16:47:33.351Z353.225° N
7 mins2025-07-09 18:23:33.351Z233.215° WSW2025-07-09 18:26:33.351Z267.756° W19.556°2025-07-09 18:30:33.351Z310.223° NW
10 mins2025-07-10 05:27:33.351Z32.147° NE2025-07-10 05:32:33.351Z108.695° ESE35.992°2025-07-10 05:37:33.351Z170.109° S
9 mins2025-07-10 07:12:33.351Z343.939° N2025-07-10 07:16:33.351Z293.022° NW25.78°2025-07-10 07:21:33.351Z240.186° WSW
|